• In Deutschland
  • Länderverzeichnis
  • Für 7 Tage
  • Wassertemperatur
  • Satellitenkarten
  • Wetterkarte
  • Widgets
  • user-avatar
    Anmelden

    Stündliche Wetter Madingou

    Heute, 23 Juli, Montag

    Zeit Temperatur Niederschläge Wind Luftdruck Luftfeuchtigkeit
    00:00 +28°C° 0 mm 2 m/S 746 mmHg 62%
    01:00 +27°C° 0 mm 2 m/S 746 mmHg 67%
    02:00 +27°C° 0 mm 2 m/S 746 mmHg 70%
    03:00 +26°C° 0 mm 2 m/S 746 mmHg 72%
    04:00 +25°C° 0 mm 2 m/S 746 mmHg 74%
    05:00 +25°C° 0 mm 2 m/S 746 mmHg 75%
    06:00 +25°C° 0 mm 2 m/S 747 mmHg 76%
    07:00 +25°C° 0 mm 2 m/S 747 mmHg 76%
    08:00 +27°C° 0 mm 2 m/S 747 mmHg 68%
    09:00 +29°C° 0 mm 2 m/S 747 mmHg 60%
    10:00 +31°C° 0 mm 2 m/S 747 mmHg 51%
    11:00 +32°C° 0 mm 2 m/S 747 mmHg 45%
    12:00 +35°C° 0 mm 2 m/S 746 mmHg 39%
    13:00 +37°C° 0 mm 2 m/S 746 mmHg 33%
    14:00 +37°C° 0 mm 2 m/S 745 mmHg 32%
    15:00 +38°C° 0 mm 2 m/S 744 mmHg 30%
    16:00 +38°C° 0 mm 2 m/S 744 mmHg 28%
    17:00 +36°C° 0 mm 2 m/S 744 mmHg 32%
    18:00 +35°C° 0 mm 2 m/S 744 mmHg 36%
    19:00 +32°C° 0 mm 2 m/S 744 mmHg 40%
    20:00 +31°C° 0 mm 2 m/S 745 mmHg 47%
    21:00 +29°C° 0 mm 3 m/S 746 mmHg 55%
    22:00 +28°C° 0 mm 3 m/S 746 mmHg 62%
    23:00 +27°C° 0 mm 3 m/S 746 mmHg 66%

    Morgen, 24 Juli, Dienstag

    Zeit Temperatur Niederschläge Wind Luftdruck Luftfeuchtigkeit
    00:00 +26°C° 0 mm 3 m/S 746 mmHg 70%
    01:00 +25°C° 0 mm 2 m/S 746 mmHg 74%
    02:00 +25°C° 0 mm 2 m/S 746 mmHg 76%
    03:00 +24°C° 0 mm 2 m/S 746 mmHg 78%
    04:00 +23°C° 0 mm 2 m/S 746 mmHg 80%
    05:00 +23°C° 0 mm 2 m/S 746 mmHg 80%
    06:00 +23°C° 0 mm 2 m/S 747 mmHg 81%
    07:00 +23°C° 0 mm 2 m/S 747 mmHg 82%
    08:00 +25°C° 0 mm 2 m/S 747 mmHg 73%
    09:00 +27°C° 0 mm 2 m/S 747 mmHg 63%
    10:00 +29°C° 0 mm 3 m/S 748 mmHg 54%
    11:00 +31°C° 0 mm 3 m/S 747 mmHg 47%
    12:00 +34°C° 0 mm 3 m/S 746 mmHg 40%
    13:00 +36°C° 0 mm 3 m/S 746 mmHg 33%
    14:00 +36°C° 0 mm 3 m/S 745 mmHg 32%
    15:00 +36°C° 0 mm 2 m/S 744 mmHg 31%
    16:00 +37°C° 0 mm 2 m/S 744 mmHg 29%
    17:00 +35°C° 0 mm 2 m/S 744 mmHg 34%
    18:00 +32°C° 0 mm 2 m/S 744 mmHg 39%
    19:00 +31°C° 0 mm 2 m/S 745 mmHg 43%
    20:00 +30°C° 0 mm 3 m/S 745 mmHg 49%
    21:00 +28°C° 0 mm 3 m/S 746 mmHg 55%
    22:00 +27°C° 0 mm 3 m/S 746 mmHg 61%
    23:00 +26°C° 0 mm 3 m/S 746 mmHg 65%

    übermorgen, 25 Juli, Mittwoch

    Zeit Temperatur Niederschläge Wind Luftdruck Luftfeuchtigkeit
    00:00 +25°C° 0 mm 2 m/S 746 mmHg 70%
    01:00 +25°C° 0 mm 2 m/S 746 mmHg 74%
    02:00 +24°C° 0 mm 2 m/S 746 mmHg 77%
    03:00 +24°C° 0 mm 2 m/S 746 mmHg 79%
    04:00 +23°C° 0 mm 2 m/S 746 mmHg 82%
    05:00 +23°C° 0 mm 1 m/S 746 mmHg 82%
    06:00 +23°C° 0 mm 1 m/S 746 mmHg 82%
    07:00 +23°C° 0 mm 1 m/S 747 mmHg 82%
    08:00 +25°C° 0 mm 1 m/S 747 mmHg 73%
    09:00 +27°C° 0 mm 1 m/S 747 mmHg 64%
    10:00 +29°C° 0 mm 2 m/S 748 mmHg 54%
    11:00 +31°C° 0 mm 2 m/S 747 mmHg 47%
    12:00 +34°C° 0 mm 2 m/S 746 mmHg 41%
    13:00 +36°C° 0 mm 2 m/S 746 mmHg 34%
    14:00 +37°C° 0 mm 2 m/S 745 mmHg 32%
    15:00 +36°C° 0 mm 1 m/S 744 mmHg 31%
    16:00 +36°C° 0 mm 1 m/S 744 mmHg 29%
    17:00 +36°C° 0 mm 2 m/S 744 mmHg 33%
    18:00 +34°C° 0 mm 2 m/S 744 mmHg 37%
    19:00 +31°C° 0 mm 2 m/S 745 mmHg 41%
    20:00 +30°C° 0 mm 2 m/S 745 mmHg 47%
    21:00 +29°C° 0 mm 2 m/S 746 mmHg 52%
    22:00 +28°C° 0 mm 2 m/S 747 mmHg 58%
    23:00 +27°C° 0 mm 2 m/S 747 mmHg 62%

    26 Juli, Donnerstag

    Zeit Temperatur Niederschläge Wind Luftdruck Luftfeuchtigkeit
    00:00 +26°C° 0 mm 2 m/S 747 mmHg 67%
    01:00 +25°C° 0 mm 2 m/S 747 mmHg 71%
    02:00 +25°C° 0 mm 2 m/S 746 mmHg 74%
    03:00 +24°C° 0 mm 2 m/S 746 mmHg 77%
    04:00 +23°C° 0 mm 2 m/S 746 mmHg 80%
    05:00 +23°C° 0 mm 2 m/S 747 mmHg 80%
    06:00 +23°C° 0 mm 2 m/S 747 mmHg 80%
    07:00 +23°C° 0 mm 2 m/S 748 mmHg 81%
    08:00 +25°C° 0 mm 2 m/S 748 mmHg 72%
    09:00 +27°C° 0 mm 2 m/S 748 mmHg 63%
    10:00 +29°C° 0 mm 2 m/S 749 mmHg 54%
    11:00 +31°C° 0 mm 3 m/S 748 mmHg 48%
    12:00 +34°C° 0 mm 3 m/S 747 mmHg 42%
    13:00 +36°C° 0 mm 3 m/S 746 mmHg 37%
    14:00 +36°C° 0 mm 3 m/S 746 mmHg 36%
    15:00 +36°C° 0 mm 3 m/S 745 mmHg 35%
    16:00 +36°C° 0 mm 3 m/S 744 mmHg 34%
    17:00 +35°C° 0 mm 3 m/S 745 mmHg 38%
    18:00 +33°C° 0 mm 3 m/S 745 mmHg 43%
    19:00 +30°C° 0 mm 3 m/S 746 mmHg 47%
    20:00 +29°C° 0 mm 3 m/S 747 mmHg 53%
    21:00 +28°C° 0 mm 3 m/S 747 mmHg 58%
    22:00 +26°C° 0 mm 3 m/S 748 mmHg 63%
    23:00 +26°C° 0 mm 3 m/S 748 mmHg 67%

    27 Juli, Freitag

    Zeit Temperatur Niederschläge Wind Luftdruck Luftfeuchtigkeit
    00:00 +25°C° 0 mm 3 m/S 748 mmHg 71%
    01:00 +24°C° 0 mm 3 m/S 747 mmHg 75%
    02:00 +23°C° 0 mm 2 m/S 747 mmHg 77%
    03:00 +23°C° 0 mm 2 m/S 747 mmHg 80%
    04:00 +21°C° 0 mm 2 m/S 747 mmHg 82%
    05:00 +21°C° 0 mm 2 m/S 747 mmHg 81%
    06:00 +21°C° 0 mm 2 m/S 748 mmHg 81%
    07:00 +21°C° 0 mm 2 m/S 748 mmHg 80%
    08:00 +24°C° 0 mm 2 m/S 748 mmHg 71%
    09:00 +26°C° 0 mm 2 m/S 748 mmHg 61%
    10:00 +28°C° 0 mm 2 m/S 749 mmHg 52%
    11:00 +30°C° 0 mm 2 m/S 748 mmHg 45%
    12:00 +34°C° 0 mm 2 m/S 747 mmHg 38%
    13:00 +36°C° 0 mm 2 m/S 746 mmHg 31%
    14:00 +36°C° 0 mm 2 m/S 745 mmHg 30%
    15:00 +36°C° 0 mm 2 m/S 744 mmHg 28%
    16:00 +37°C° 0 mm 2 m/S 744 mmHg 27%
    17:00 +35°C° 0 mm 2 m/S 744 mmHg 30%
    18:00 +34°C° 0 mm 2 m/S 745 mmHg 34%
    19:00 +31°C° 0 mm 1 m/S 745 mmHg 37%
    20:00 +30°C° 0 mm 2 m/S 746 mmHg 42%
    21:00 +29°C° 0 mm 2 m/S 746 mmHg 47%
    22:00 +28°C° 0 mm 2 m/S 747 mmHg 52%
    23:00 +27°C° 0 mm 2 m/S 747 mmHg 57%

    28 Juli, Samstag

    Zeit Temperatur Niederschläge Wind Luftdruck Luftfeuchtigkeit
    00:00 +26°C° 0 mm 2 m/S 746 mmHg 62%
    01:00 +25°C° 0 mm 2 m/S 746 mmHg 68%
    02:00 +24°C° 0 mm 2 m/S 746 mmHg 71%
    03:00 +24°C° 0 mm 2 m/S 746 mmHg 74%
    04:00 +23°C° 0 mm 2 m/S 746 mmHg 77%
    05:00 +23°C° 0 mm 2 m/S 747 mmHg 78%
    06:00 +23°C° 0 mm 2 m/S 747 mmHg 79%
    07:00 +21°C° 0 mm 2 m/S 748 mmHg 80%
    08:00 +25°C° 0 mm 2 m/S 748 mmHg 70%
    09:00 +27°C° 0 mm 2 m/S 748 mmHg 60%
    10:00 +29°C° 0 mm 2 m/S 748 mmHg 50%
    11:00 +31°C° 0 mm 2 m/S 748 mmHg 44%
    12:00 +34°C° 0 mm 3 m/S 747 mmHg 37%
    13:00 +36°C° 0 mm 3 m/S 746 mmHg 30%
    14:00 +36°C° 0 mm 3 m/S 745 mmHg 29%
    15:00 +36°C° 0 mm 3 m/S 745 mmHg 28%
    16:00 +36°C° 0 mm 3 m/S 744 mmHg 27%
    17:00 +35°C° 0 mm 3 m/S 745 mmHg 31%
    18:00 +33°C° 0 mm 3 m/S 745 mmHg 35%
    19:00 +30°C° 0 mm 2 m/S 746 mmHg 39%
    20:00 +29°C° 0 mm 3 m/S 746 mmHg 46%
    21:00 +28°C° 0 mm 3 m/S 747 mmHg 53%
    22:00 +27°C° 0 mm 3 m/S 747 mmHg 59%
    23:00 +26°C° 0 mm 3 m/S 747 mmHg 63%
    Mehr zeigen